| time (UTC) | temp F | wind direction | speed MPH | gust MPH | rain 1hr in | rain 24hr in | rain mn in | humidity % | barometer mb |
| 20260505074539 | 58 | 0 | 0.0 | 0.0 | 0.01 | 0.01 | 0.01 | 92 | 1013.3 |
| 20260505073050 | 58 | 0 | 0.0 | 0.0 | 0.01 | 0.01 | 0.01 | 91 | 1013.4 |
| 20260505071540 | 58 | 20 | 0.0 | 0.0 | 0.01 | 0.01 | 0.01 | 90 | 1013.6 |
| 20260505070050 | 59 | 0 | 0.0 | 0.0 | 0.00 | 0.00 | 0.00 | 88 | 1013.6 |
| 20260505064539 | 59 | 0 | 0.0 | 1.0 | 0.00 | 0.00 | 0.00 | 88 | 1013.6 |
| 20260505063036 | 58 | 0 | 0.0 | 1.0 | 0.00 | 0.00 | 0.00 | 88 | 1013.9 |
| 20260505061536 | 58 | 0 | 0.0 | 1.0 | 0.00 | 0.00 | 0.00 | 88 | 1013.9 |
| 20260505060044 | 58 | 0 | 0.0 | 2.0 | 0.00 | 0.00 | 0.00 | 88 | 1014.0 |
| 20260505054542 | 59 | 0 | 0.0 | 1.0 | 0.00 | 0.00 | 0.00 | 86 | 1014.1 |
| 20260505053040 | 59 | 244 | 0.0 | 2.0 | 0.00 | 0.00 | 0.00 | 86 | 1014.1 |
| 20260505051539 | 59 | 268 | 0.0 | 4.0 | 0.00 | 0.00 | 0.00 | 85 | 1014.4 |
| 20260505050117 | 60 | 0 | 0.0 | 8.0 | 0.00 | 0.00 | 0.00 | 84 | 1014.3 |
| 20260505041551 | 61 | 296 | 1.0 | 6.0 | 0.00 | 0.00 | 0.00 | 76 | 1014.2 |
| 20260505040051 | 61 | 0 | 0.0 | 2.0 | 0.00 | 0.00 | 0.00 | 77 | 1014.1 |
| 20260505034536 | 60 | 0 | 1.0 | 2.0 | 0.00 | 0.00 | 0.00 | 79 | 1014.1 |
| 20260505033045 | 60 | 0 | 0.0 | 3.0 | 0.00 | 0.00 | 0.00 | 78 | 1014.0 |
| 20260505031546 | 60 | 244 | 0.0 | 4.0 | 0.00 | 0.00 | 0.00 | 78 | 1013.9 |
| 20260505030042 | 60 | 272 | 0.0 | 5.0 | 0.00 | 0.00 | 0.00 | 78 | 1013.6 |
| 20260505024810 | 61 | 290 | 1.0 | 4.0 | 0.00 | 0.00 | 0.00 | 78 | 1013.5 |
| 20260505023042 | 61 | 242 | 2.0 | 7.0 | 0.00 | 0.00 | 0.00 | 77 | 1013.7 |
| 20260505021543 | 61 | 238 | 2.0 | 7.0 | 0.00 | 0.00 | 0.00 | 77 | 1013.7 |
| 20260505020039 | 62 | 243 | 1.0 | 6.0 | 0.00 | 0.00 | 0.00 | 76 | 1013.8 |
| 20260505014600 | 62 | 299 | 3.0 | 10.0 | 0.00 | 0.00 | 0.00 | 75 | 1013.6 |
| 20260505013040 | 62 | 245 | 4.0 | 9.0 | 0.00 | 0.00 | 0.00 | 74 | 1013.9 |
| 20260505011536 | 63 | 267 | 2.0 | 9.0 | 0.00 | 0.00 | 0.00 | 72 | 1013.9 |
| 20260505010041 | 64 | 305 | 3.0 | 9.0 | 0.00 | 0.00 | 0.00 | 70 | 1014.0 |
| 20260505004544 | 65 | 290 | 2.0 | 12.0 | 0.00 | 0.00 | 0.00 | 70 | 1014.0 |
| 20260505003040 | 66 | 278 | 3.0 | 11.0 | 0.00 | 0.00 | 0.00 | 68 | 1014.1 |
| 20260505001545 | 65 | 257 | 3.0 | 12.0 | 0.00 | 0.00 | 0.00 | 69 | 1014.0 |
| 20260505000040 | 67 | 202 | 2.0 | 16.0 | 0.00 | 0.00 | 0.00 | 63 | 1014.0 |
| 20260504234603 | 66 | 263 | 4.0 | 10.0 | 0.00 | 0.00 | 0.00 | 65 | 1014.0 |
| 20260504233040 | 65 | 260 | 3.0 | 12.0 | 0.00 | 0.00 | 0.00 | 66 | 1014.1 |
| 20260504231539 | 67 | 231 | 4.0 | 12.0 | 0.00 | 0.00 | 0.00 | 63 | 1014.1 |
| 20260504230039 | 68 | 321 | 3.0 | 11.0 | 0.00 | 0.00 | 0.00 | 61 | 1014.1 |
| 20260504224548 | 68 | 231 | 3.0 | 12.0 | 0.00 | 0.00 | 0.00 | 59 | 1014.0 |
| 20260504223045 | 67 | 286 | 5.0 | 15.0 | 0.00 | 0.00 | 0.00 | 59 | 1014.2 |
| 20260504221542 | 68 | 261 | 4.0 | 12.0 | 0.00 | 0.00 | 0.00 | 62 | 1014.3 |
| 20260504220040 | 67 | 242 | 3.0 | 14.0 | 0.00 | 0.00 | 0.00 | 62 | 1014.4 |
| 20260504214540 | 68 | 229 | 3.0 | 12.0 | 0.00 | 0.00 | 0.00 | 63 | 1014.5 |
| 20260504213053 | 69 | 279 | 4.0 | 10.0 | 0.00 | 0.00 | 0.00 | 59 | 1014.6 |
| 20260504211543 | 69 | 244 | 3.0 | 14.0 | 0.00 | 0.00 | 0.00 | 60 | 1014.7 |
| 20260504210041 | 70 | 277 | 2.0 | 7.0 | 0.00 | 0.00 | 0.00 | 59 | 1014.7 |
| 20260504204541 | 69 | 236 | 5.0 | 13.0 | 0.00 | 0.00 | 0.00 | 58 | 1014.9 |
| 20260504203040 | 69 | 223 | 2.0 | 7.0 | 0.00 | 0.00 | 0.00 | 59 | 1014.9 |
| 20260504201540 | 69 | 248 | 2.0 | 10.0 | 0.00 | 0.00 | 0.00 | 61 | 1014.9 |
| 20260504200036 | 67 | 290 | 3.0 | 9.0 | 0.00 | 0.00 | 0.00 | 63 | 1014.9 |
| 20260504194555 | 67 | 242 | 5.0 | 14.0 | 0.00 | 0.00 | 0.00 | 61 | 1014.8 |
| 20260504193050 | 66 | 276 | 4.0 | 9.0 | 0.00 | 0.00 | 0.00 | 62 | 1015.1 |
| 20260504191539 | 67 | 294 | 3.0 | 8.0 | 0.00 | 0.00 | 0.00 | 61 | 1015.1 |
| 20260504190041 | 67 | 264 | 3.0 | 9.0 | 0.00 | 0.00 | 0.00 | 62 | 1015.2 |
| 20260504184535 | 67 | 257 | 2.0 | 8.0 | 0.00 | 0.00 | 0.00 | 65 | 1015.4 |
| 20260504183040 | 65 | 275 | 3.0 | 13.0 | 0.00 | 0.00 | 0.00 | 67 | 1015.3 |
| 20260504181543 | 66 | 232 | 2.0 | 7.0 | 0.00 | 0.00 | 0.00 | 66 | 1015.2 |
| 20260504180039 | 64 | 296 | 1.0 | 10.0 | 0.00 | 0.00 | 0.00 | 70 | 1015.2 |
| 20260504174539 | 64 | 272 | 2.0 | 6.0 | 0.00 | 0.00 | 0.00 | 71 | 1015.3 |
| 20260504173048 | 63 | 243 | 2.0 | 9.0 | 0.00 | 0.00 | 0.00 | 70 | 1015.1 |
| 20260504171540 | 63 | 275 | 2.0 | 7.0 | 0.00 | 0.00 | 0.00 | 70 | 1015.0 |
| 20260504081542 | 60 | 0 | 1.0 | 9.0 | 0.00 | 0.00 | 0.00 | 81 | 1014.2 |